User: anonymous   Login
Location: Dresden
(51.0493°N, 13.7381°E)
Time: 11:29:06
(UTC+02:00)
Language:

USA 238 DEB - Orbit

View from above orbital plane
View from above orbital plane
View from above satellite
View from above satellite

Ground track
Ground track

The orbit data is extracted from the following two-line orbital elements,

1 38773U 12048P   21161.03758464 0.00000000  00000-0  00000-0 0    04
2 38773  63.4444 200.8737 0154037 359.5586   0.4147 13.40813598    01
Epoch (UTC): 10 June 2021 00:54:07
Eccentricity: 0.0154037
inclination: 63.4444°
perigee height: 991 km
apogee height: 1221 km
right ascension of ascending node: 200.8737°
argument of perigee: 359.5586°
revolutions per day: 13.40813598
mean anomaly at epoch: 0.4147°
orbit number at epoch: 0

The dashed part of the orbit path shows where the satellite is in the earth's shadow,  

DLR